Regional Weather Roundup
Issued by NWS

Home | Current Version | Previous Version | Graphics & Text | Print | Product List | Glossary On
Versions: 1 2 3 4 5 6 7 8 9 10 11 12 13 14 15 16 17 18 19 20 21 22 23 24 25 26 27 28 29 30 31 32 33 34 35 36 37 38 39 40 41 42 43 44 45 46 47 48 49 50
000
ASUS44 KMEG 241410
RWRTN
TENNESSEE HOURLY STATE WEATHER ROUNDUP
NATIONAL WEATHER SERVICE MEMPHIS TN
900 AM CDT SUN JUL 24 2016

TNZ002-004-019-021-049-052-054-088>092-241500-
WEST TENNESSEE

CITY           SKY/WX    TMP DP  RH WIND       PRES   REMARKS
MEMPHIS INTL   LGT RAIN  80  75  84 S9        30.00S
NWS MEMPHIS      N/A     77 N/A N/A MISG        N/A
JACKSON        CLOUDY    81  76  84 S5        30.02R
DYERSBURG      MOSUNNY   82  75  78 MISG      30.00S
UNION CITY     SUNNY     82  79  89 VRB3      30.00R HX  93
PARIS          SUNNY     81  75  83 VRB5      30.02S
LEXINGTON      SUNNY     82  75  78 S6        30.03R
$$

TNZ008-025-027-028-033-062-065-066-241500-
NORTH MIDDLE TENNESSEE

CITY           SKY/WX    TMP DP  RH WIND       PRES   REMARKS
NASHVILLE      MOSUNNY   83  72  69 S7        30.04S
CLARKSVILLE    MOSUNNY   80  75  84 S7        30.02R
SMYRNA         SUNNY     82  74  77 W8        30.05S
COOKEVILLE     SUNNY     82  73  74 SW7       30.06S
CROSSVILLE     CLOUDY    78  70  76 S5        30.12S
$$

TNZ061-075-076-078-094-096-097-241500-
SOUTH MIDDLE TENNESSEE

CITY           SKY/WX    TMP DP  RH WIND       PRES   REMARKS
FAYETTEVILLE   SUNNY     81  75  83 S5        30.07R
TULLAHOMA      SUNNY     81  73  78 S5        30.08S
WINCHESTER     SUNNY     82  72  69 E3        30.07S
MCMINNVILLE    SUNNY     82  77  83 CALM      30.08S HX  91
COLUMBIA       SUNNY     84  84 100 SW6       30.04R HX 104
SHELBYVILLE    SUNNY     82  75  78 S6        30.07R
$$

TNZ017-018-042-046-047-241500-
NORTHEAST TENNESSEE

CITY           SKY/WX    TMP DP  RH WIND       PRES   REMARKS
TRI CITIES     PTSUNNY   80  70  71 CALM      30.11S
ELIZABETHTON   SUNNY     79  70  73 CALM      30.10F
$$

TNZ012-013-036-069-073-074-241500-
CENTRAL EAST TENNESSEE

CITY           SKY/WX    TMP DP  RH WIND       PRES   REMARKS
KNOXVILLE      CLOUDY    81  70  69 CALM      30.07F
OAK RIDGE      CLOUDY    78  71  79 W3        30.10S
GATLINBURG     SUNNY     81  66  61 CALM      30.07F
MORRISTOWN     SUNNY     81  70  69 CALM      30.09S
$$

TNZ083-085-099-241500-
SOUTHEAST TENNESSEE

CITY           SKY/WX    TMP DP  RH WIND       PRES   REMARKS
CHATTANOOGA    PTSUNNY   81  71  71 CALM      30.08R
$$

SKY/WX REPORTED AS FAIR MEANS FEW OR NO CLOUDS BELOW
12 THOUSAND FEET.





USA.gov is the U.S. government's official web portal to all federal, state and local government web resources and services.